This demonstration page uses our WeatherBlox Daily Observations layout. Learn more.

Left ArrowRight Arrow

34.02893, -84.19858

Hourly Observations for March 11, 2016

Temp ( °F °C ) Dew Point ( °F °C ) Humidity (%) Winds ( mph kmh ) Pressure ( in mb ) Visibility ( mi km ) Precip ( " mm )
12:53 am 00:53 Cloudy 63 17.2 63 17.2 100 100 WSW 3 6 30.18 1022 10 16 0.00 0.00
1:53 am 01:53 Mostly Cloudy 63 17.2 63 17.2 100 100 SSW 7 11 30.17 1022 10 16 0.00 0.00
2:53 am 02:53 Mostly Cloudy 63 17.2 62 16.7 97 97 S 5 7 30.13 1020 10 16 0.00 0.00
3:53 am 03:53 Clear 62 16.7 61 16.1 96 96 SSW 8 13 30.11 1020 10 16 0.00 0.00
4:53 am 04:53 Clear 62 16.7 60 15.6 93 93 S 8 13 30.08 1019 10 16 0.00 0.00
5:53 am 05:53 Clear 60 15.6 59 15 96 96 SSW 3 6 30.10 1019 10 16 0.00 0.00
6:53 am 06:53 Sunny 61 16.1 59 15 93 93 NNW 8 13 30.11 1020 10 16 0.00 0.00
7:53 am 07:53 Sunny 62 16.7 60 15.6 93 93 N 6 9 30.14 1021 10 16 0.00 0.00
8:53 am 08:53 Sunny 64 17.8 61 16.1 90 90 Calm 30.16 1022 10 16 0.00 0.00
9:53 am 09:53 Sunny 69 20.6 62 16.7 78 78 N 3 6 30.16 1021 10 16 0.00 0.00
10:53 am 10:53 Sunny 73 22.8 60 15.6 64 64 Calm 30.16 1021 10 16 0.00 0.00
11:53 am 11:53 Sunny 74 23.3 60 15.6 62 62 SW 10 17 30.16 1021 10 16 0.00 0.00
12:53 pm 12:53 Partly Cloudy 76 24.4 60 15.6 58 58 W 6 9 30.16 1022 10 16 0.00 0.00
1:53 pm 13:53 Sunny 77 25 60 15.6 56 56 SSW 6 9 30.14 1021 10 16 0.00 0.00
2:53 pm 14:53 Partly Cloudy 77 25 60 15.6 56 56 SW 6 9 30.13 1020 10 16 0.00 0.00
3:53 pm 15:53 Cloudy 76 24.4 60 15.6 58 58 SW 6 9 30.13 1020 10 16 0.00 0.00
4:53 pm 16:53 Mostly Cloudy 77 25 60 15.6 56 56 SW 5 7 30.13 1020 10 16 0.00 0.00
5:53 pm 17:53 Cloudy 76 24.4 59 15 56 56 Calm 30.14 1021 10 16 0.00 0.00
6:53 pm 18:53 Mostly Clear 73 22.8 60 15.6 64 64 Calm 30.14 1021 10 16 0.00 0.00
7:05 pm 19:05 Partly Cloudy 72 22.2 60 15.6 66 66 Calm 30.15 1021 10 16 0.00 0.00
7:53 pm 19:53 Cloudy 73 22.8 60 15.6 64 64 Calm 30.16 1021 10 16 0.00 0.00
8:53 pm 20:53 Cloudy 71 21.7 60 15.6 68 68 Calm 30.17 1022 10 16 0.00 0.00
9:53 pm 21:53 Mostly Cloudy 67 19.4 61 16.1 81 81 Calm 30.16 1021 10 16 0.00 0.00
10:53 pm 22:53 Mostly Cloudy 68 20 61 16.1 78 78 Calm 30.16 1021 10 16 0.00 0.00
11:53 pm 23:53 Mostly Cloudy 68 20 61 16.1 78 78 Calm 30.15 1021 10 16 0.00 0.00

Powered by AerisWeather